Regional Weather Roundup
Issued by NWS Sterling, VA

Home | Current Version | Previous Version | Graphics & Text | Print | Product List | Glossary On
Versions: 1 2 3 4 5 6 7 8 9 10 11 12 13 14 15 16 17 18 19 20 21 22 23 24 25 26 27 28 29 30 31 32 33 34 35 36 37 38 39 40 41 42 43 44 45 46 47 48 49 50
000
ASUS41 KLWX 281710
RWRLWX

REGIONAL WEATHER ROUNDUP
NATIONAL WEATHER SERVICE BALTIMORE MD/WASHINGTON DC
1200 PM EST SUN DEC 28 2014

Note: "FAIR" indicates few or no clouds below 12,000 feet
with no significant weather and/or obstructions to visibility.
 TC=TEMPERATURE CELSIUS

 * =Non NWS site. Station does not report precipitation (e.g. rain,
    snow, etc.), thunder, or fog.

DCZ001-MDZ009-015-VAZ040>042-051-053>054-281800-
WASHINGTON METRO

CITY           SKY/WX    TMP DP  RH WIND       PRES   REMARKS
WASHINGTON NAT CLOUDY    57  40  52 S5        29.98S
DULLES         CLOUDY    55  41  59 S3        29.97F
ANDREWS AFB    CLOUDY    56  40  55 SW6       29.97S
FT BELVOIR     CLOUDY    58  40  50 SW3       29.98F
QUANTICO       CLOUDY    52  41  66 VRB3      29.99S
COLLEGE PARK*  CLOUDY    55  41  58 CALM      29.97F
LEESBURG*      CLOUDY    55  45  67 CALM      29.97F
MANASSAS*      CLOUDY    57  43  58 SE3       29.97F
GAITHERSBURG*  CLOUDY    55  39  54 NW3       29.99F

$$

MDZ006>007-011-014-281800-
BALTIMORE METRO

CITY           SKY/WX    TMP DP  RH WIND       PRES   REMARKS
BWI AIRPORT    PTSUNNY   58  41  53 W6        29.95S
MD SCIENCE CTR   N/A     55  44  66 MISG      29.98S
ANNAPOLIS      PTSUNNY   56  40  55 VRB5      29.96S
FORT MEADE*    PTSUNNY   55  41  58 W5        29.98F

$$

MDZ012-015-019>023-281800-
MARYLAND EASTERN SHORE

CITY           SKY/WX    TMP DP  RH WIND       PRES   REMARKS
OCEAN CITY     CLOUDY    58  45  62 W8        29.95F
SALISBURY      CLOUDY    60  43  53 W9        29.97F
BAY BRIDGE AP*   N/A     54  37  54 CALM      29.97S
CAMBRIDGE*     CLOUDY    55  41  58 W3        29.97R
EASTON*        MOSUNNY   55  45  67 SW7       30.00S

$$

MDZ017>025-281800-
SOUTHERN MARYLAND

CITY           SKY/WX    TMP DP  RH WIND       PRES   REMARKS
PATUXENT RIVER CLOUDY    59  39  47 W12       29.97S
ST INIGOES     CLOUDY    59  40  49 NW6       29.97S
LEONARDTOWN*   CLOUDY    57  37  47 W5        30.00R

$$

MDZ003>005-281800-
NORTH CENTRAL MARYLAND

CITY           SKY/WX    TMP DP  RH WIND       PRES   REMARKS
FREDERICK*     SUNNY     57  41  54 NW12      29.99F
HAGERSTOWN APT CLOUDY    55  41  59 SW7       29.95F
WESTMINSTER*   CLOUDY    54  43  66 W5        29.95F

$$

MDZ501>502-281800-
WESTERN MARYLAND

CITY           SKY/WX    TMP DP  RH WIND       PRES   REMARKS
OAKLAND*       FOG       36 N/A N/A NW3       29.98R VSB<1/4
CUMBERLAND*    CLOUDY    54  41  62 W9        30.02R

$$

VAZ025>031-281800-
SHENANDOAH VALLEY

CITY           SKY/WX    TMP DP  RH WIND       PRES   REMARKS
WINCHESTER*    CLOUDY    54  36  50 CALM      29.96F
FRONT ROYAL*   FAIR      54  36  50 CALM      29.95F
LURAY*         PTSUNNY   59  45  58 CALM      29.94F
NEW MARKET*    PTSUNNY   53  39  60 E3        29.95F
STAUNTON*      DRIZZLE   60  44  56 W8        29.97F
WAYNESBORO*    FAIR      57  44  62 W7        29.97F

$$

WVZ021-048>050-054>055-281800-
EASTERN WEST VIRGINIA PANHANDLE

CITY           SKY/WX    TMP DP  RH WIND       PRES   REMARKS
MARTINSBURG    CLOUDY    57  40  52 W7        29.96F
PETERSBURG*    PTSUNNY   56  40  54 W10       29.97F

$$

VAZ036>039-050-281800-
CENTRAL FOOTHILLS

CITY           SKY/WX    TMP DP  RH WIND       PRES   REMARKS
CHARLOTTESVILL CLOUDY    57  39  51 S9        29.94F
CULPEPER*      CLOUDY    57  41  54 CALM      29.96F
ORANGE*        CLOUDY    57  41  54 S3        29.97F
GORDONSVILLE*  FAIR      55  39  54 SW5       29.95F
WARRENTON*     FAIR      58  46  63 SE3       29.95F

$$

VAZ055>057-281800-
NORTH AND CENTRAL PIEDMONT

CITY           SKY/WX    TMP DP  RH WIND       PRES   REMARKS
FREDERICKSBRG* CLOUDY    59  41  51 CALM      29.96F
STAFFORD*      CLOUDY    56  38  50 CALM      30.02R

$$

NCZ024-NYZ072-PAZ021-071-VAZ022-071-281800-
OTHER REGIONAL OBSERVATIONS

CITY           SKY/WX    TMP DP  RH WIND       PRES   REMARKS
NEW YORK CITY  CLOUDY    49  40  71 W6        29.92S
PHILADELPHIA   CLOUDY    51  42  71 W8        29.95S
PITTSBURGH     CLOUDY    37  35  92 NW10      30.04F FOG
ROANOKE        LGT RAIN  58  44  60 W8        30.01F
RICHMOND       CLOUDY    62  44  51 SW9       29.98F
RALEIGH        CLOUDY    58  52  80 SW9       30.05F

$$

ANZ530>537-281800-
MARINE OBSERVATIONS

STATION/POSITION TIME  TEMP    WIND        PRES
                       AIR SEA DIR/SP/G
                 (UTC) (F)     (DEG/KT/KT) (MB)
THOMAS PT LIGHT  1700   51 43  210/  6/  6 1015.7F
BALT KEY BRIDGE  1700   51     210/  5/  5 1014.3S
COVE POINT       1700   55     310/  4/  6 1014.7F
LEWISETTA        1700   59 45  260/ 12/ 13 1014.3R
SOLOMONS ISLAND  1700      44                N/A
PINEY POINT      1700          350/ 10/ 11   N/A

$$



USA.gov is the U.S. government's official web portal to all federal, state and local government web resources and services.